User: anonymous   Login
Location: Unspecified
(0.0000°N, 0.0000°E)
Time: 22:20:02
(UTC+00:00)
Language:

Hamsat - Orbit

View from above orbital plane
View from above orbital plane
View from above satellite
View from above satellite

Ground track
Ground track

The orbit data is extracted from the following two-line orbital elements,

1 28650U 05017B   17326.97861749  .00000461  00000-0  54839-4 0  9998
2 28650  97.6719 296.1175 0022731 328.4090  31.5761 14.88810960679790
Epoch (UTC): 22 November 2017 23:29:12
Eccentricity: 0.0022731
inclination: 97.6719°
perigee height: 586 km
apogee height: 617 km
right ascension of ascending node: 296.1175°
argument of perigee: 328.4090°
revolutions per day: 14.88810960
mean anomaly at epoch: 31.5761°
orbit number at epoch: 67979

The dashed part of the orbit path shows where the satellite is in the earth's shadow,  

DLR